owner,sensor,date,latitude,longitude,sea_surface_height_above_sea_level,qcFlag 
DISL,ioos:station:DISL:BSCA:1,2018-03-02T10:00:00Z,30.3288,-87.8293,1.843,1111122 
DISL,ioos:station:DISL:BSCA:1,2018-03-02T12:30:00Z,30.3288,-87.8293,1.686,1111122 
DISL,ioos:station:DISL:BSCA:1,2018-03-02T13:30:00Z,30.3288,-87.8293,1.662,1111122 
DISL,ioos:station:DISL:BSCA:1,2018-03-02T14:30:00Z,30.3288,-87.8293,1.637,1111122 
DISL,ioos:station:DISL:BSCA:1,2018-03-02T15:30:00Z,30.3288,-87.8293,1.642,1111122 
DISL,ioos:station:DISL:BSCA:1,2018-03-02T16:00:00Z,30.3288,-87.8293,1.648,1111122 
DISL,ioos:station:DISL:BSCA:1,2018-03-02T17:00:00Z,30.3288,-87.8293,1.64,1111122 
DISL,ioos:station:DISL:BSCA:1,2018-03-02T18:00:00Z,30.3288,-87.8293,1.681,1111122 
DISL,ioos:station:DISL:BSCA:1,2018-03-02T19:30:00Z,30.3288,-87.8293,1.789,1111122 
DISL,ioos:station:DISL:BSCA:1,2018-03-02T20:00:00Z,30.3288,-87.8293,1.801,1111122 
DISL,ioos:station:DISL:BSCA:1,2018-03-02T21:00:00Z,30.3288,-87.8293,1.804,1111122 
DISL,ioos:station:DISL:BSCA:1,2018-03-02T22:00:00Z,30.3288,-87.8293,1.793,1111122 
DISL,ioos:station:DISL:BSCA:1,2018-03-02T23:00:00Z,30.3288,-87.8293,1.805,1111122 
DISL,ioos:station:DISL:BSCA:1,2018-03-03T00:00:00Z,30.3288,-87.8293,1.828,1111122 
DISL,ioos:station:DISL:BSCA:1,2018-03-03T01:00:00Z,30.3288,-87.8293,1.852,1111122 
DISL,ioos:station:DISL:BSCA:1,2018-03-03T02:30:00Z,30.3288,-87.8293,1.875,1111122 
DISL,ioos:station:DISL:BSCA:1,2018-03-03T03:00:00Z,30.3288,-87.8293,1.89,1111122 
DISL,ioos:station:DISL:BSCA:1,2018-03-03T04:00:00Z,30.3288,-87.8293,1.929,1111122 
DISL,ioos:station:DISL:BSCA:1,2018-03-03T05:30:00Z,30.3288,-87.8293,1.937,1111122 
DISL,ioos:station:DISL:BSCA:1,2018-03-03T06:00:00Z,30.3288,-87.8293,1.929,1111122 
DISL,ioos:station:DISL:BSCA:1,2018-03-03T07:00:00Z,30.3288,-87.8293,1.911,1111122 
DISL,ioos:station:DISL:BSCA:1,2018-03-03T08:30:00Z,30.3288,-87.8293,1.883,1111122 
DISL,ioos:station:DISL:BSCA:1,2018-03-03T09:30:00Z,30.3288,-87.8293,1.846,1111122 
DISL,ioos:station:DISL:BSCA:1,2018-03-03T10:30:00Z,30.3288,-87.8293,1.782,1111122 
DISL,ioos:station:DISL:BSCA:1,2018-03-03T11:30:00Z,30.3288,-87.8293,1.729,1111122 
DISL,ioos:station:DISL:BSCA:1,2018-03-03T12:30:00Z,30.3288,-87.8293,1.716,1111122 
DISL,ioos:station:DISL:BSCA:1,2018-03-03T13:30:00Z,30.3288,-87.8293,1.696,1111122 
DISL,ioos:station:DISL:BSCA:1,2018-03-03T14:30:00Z,30.3288,-87.8293,1.692,1111122 
DISL,ioos:station:DISL:BSCA:1,2018-03-03T15:30:00Z,30.3288,-87.8293,1.716,1111122 
DISL,ioos:station:DISL:BSCA:1,2018-03-03T16:00:00Z,30.3288,-87.8293,1.731,1111122 
DISL,ioos:station:DISL:BSCA:1,2018-03-04T05:00:00Z,30.3288,-87.8293,1.849,1111122 
DISL,ioos:station:DISL:BSCA:1,2018-03-04T05:30:00Z,30.3288,-87.8293,1.85,1111122 
DISL,ioos:station:DISL:BSCA:1,2018-03-04T06:30:00Z,30.3288,-87.8293,1.854,1111122 
DISL,ioos:station:DISL:BSCA:1,2018-03-04T07:30:00Z,30.3288,-87.8293,1.87,1111122 
DISL,ioos:station:DISL:BSCA:1,2018-03-04T08:30:00Z,30.3288,-87.8293,1.855,1111122 
DISL,ioos:station:DISL:BSCA:1,2018-03-04T09:30:00Z,30.3288,-87.8293,1.822,1111122 
DISL,ioos:station:DISL:BSCA:1,2018-03-04T10:30:00Z,30.3288,-87.8293,1.765,1111122 
DISL,ioos:station:DISL:BSCA:1,2018-03-04T11:30:00Z,30.3288,-87.8293,1.734,1111122 
DISL,ioos:station:DISL:BSCA:1,2018-03-04T12:30:00Z,30.3288,-87.8293,1.731,1111122 
DISL,ioos:station:DISL:BSCA:1,2018-03-04T13:30:00Z,30.3288,-87.8293,1.765,1111122 
DISL,ioos:station:DISL:BSCA:1,2018-03-04T14:30:00Z,30.3288,-87.8293,1.781,1111122 
DISL,ioos:station:DISL:BSCA:1,2018-03-04T15:30:00Z,30.3288,-87.8293,1.798,1111122 
DISL,ioos:station:DISL:BSCA:1,2018-03-05T00:30:00Z,30.3288,-87.8293,1.885,1111122 
DISL,ioos:station:DISL:BSCA:1,2018-03-05T01:30:00Z,30.3288,-87.8293,1.894,1111122 
DISL,ioos:station:DISL:BSCA:1,2018-03-05T02:30:00Z,30.3288,-87.8293,1.884,1111122 
DISL,ioos:station:DISL:BSCA:1,2018-03-05T03:30:00Z,30.3288,-87.8293,1.877,1111122 
DISL,ioos:station:DISL:BSCA:1,2018-03-05T04:30:00Z,30.3288,-87.8293,1.891,1111122 
DISL,ioos:station:DISL:BSCA:1,2018-03-05T05:30:00Z,30.3288,-87.8293,1.909,1111122 
DISL,ioos:station:DISL:BSCA:1,2018-03-05T06:30:00Z,30.3288,-87.8293,1.904,1111122 
DISL,ioos:station:DISL:BSCA:1,2018-03-05T07:30:00Z,30.3288,-87.8293,1.9,1111122 
DISL,ioos:station:DISL:BSCA:1,2018-03-05T08:30:00Z,30.3288,-87.8293,1.917,1111122 
DISL,ioos:station:DISL:BSCA:1,2018-03-05T09:30:00Z,30.3288,-87.8293,1.941,1111122 
DISL,ioos:station:DISL:BSCA:1,2018-03-05T10:30:00Z,30.3288,-87.8293,1.951,1111122 
DISL,ioos:station:DISL:BSCA:1,2018-03-05T11:30:00Z,30.3288,-87.8293,1.936,1111122 
DISL,ioos:station:DISL:BSCA:1,2018-03-05T12:30:00Z,30.3288,-87.8293,1.912,1111122 
DISL,ioos:station:DISL:BSCA:1,2018-03-05T15:00:00Z,30.3288,-87.8293,1.998,1111122 
DISL,ioos:station:DISL:BSCA:1,2018-03-05T15:30:00Z,30.3288,-87.8293,1.996,1111122 
DISL,ioos:station:DISL:BSCA:1,2018-03-05T17:00:00Z,30.3288,-87.8293,1.961,1111122 
DISL,ioos:station:DISL:BSCA:1,2018-03-05T18:00:00Z,30.3288,-87.8293,1.98,1111122 
DISL,ioos:station:DISL:BSCA:1,2018-03-05T18:30:00Z,30.3288,-87.8293,1.98,1111122 
DISL,ioos:station:DISL:BSCA:1,2018-03-05T20:00:00Z,30.3288,-87.8293,1.997,1111122 
DISL,ioos:station:DISL:BSCA:1,2018-03-05T21:00:00Z,30.3288,-87.8293,1.992,1111122 
DISL,ioos:station:DISL:BSCA:1,2018-03-05T22:00:00Z,30.3288,-87.8293,2.003,1111122 
DISL,ioos:station:DISL:BSCA:1,2018-03-05T22:30:00Z,30.3288,-87.8293,1.985,1111122 
DISL,ioos:station:DISL:BSCA:1,2018-03-05T23:30:00Z,30.3288,-87.8293,1.941,1111122 
DISL,ioos:station:DISL:BSCA:1,2018-03-06T00:30:00Z,30.3288,-87.8293,1.919,1111122 
DISL,ioos:station:DISL:BSCA:1,2018-03-06T01:30:00Z,30.3288,-87.8293,1.898,1111122 
DISL,ioos:station:DISL:BSCA:1,2018-03-06T02:30:00Z,30.3288,-87.8293,1.887,1111122 
DISL,ioos:station:DISL:BSCA:1,2018-03-06T03:30:00Z,30.3288,-87.8293,1.892,1111122 
DISL,ioos:station:DISL:BSCA:1,2018-03-06T04:30:00Z,30.3288,-87.8293,1.901,1111122 
DISL,ioos:station:DISL:BSCA:1,2018-03-07T00:30:00Z,30.3288,-87.8293,1.987,1111122 
DISL,ioos:station:DISL:BSCA:1,2018-03-07T01:30:00Z,30.3288,-87.8293,1.978,1111122 
DISL,ioos:station:DISL:BSCA:1,2018-03-07T02:30:00Z,30.3288,-87.8293,1.951,1111122 
DISL,ioos:station:DISL:BSCA:1,2018-03-07T03:30:00Z,30.3288,-87.8293,1.933,1111122 
DISL,ioos:station:DISL:BSCA:1,2018-03-07T04:30:00Z,30.3288,-87.8293,1.945,1111122 
DISL,ioos:station:DISL:BSCA:1,2018-03-07T05:30:00Z,30.3288,-87.8293,1.938,1111122 
DISL,ioos:station:DISL:BSCA:1,2018-03-07T06:30:00Z,30.3288,-87.8293,1.861,1111122 
DISL,ioos:station:DISL:BSCA:1,2018-03-07T07:30:00Z,30.3288,-87.8293,1.843,1111122 
DISL,ioos:station:DISL:BSCA:1,2018-03-07T08:30:00Z,30.3288,-87.8293,1.909,1111122 
DISL,ioos:station:DISL:BSCA:1,2018-03-07T09:30:00Z,30.3288,-87.8293,1.9,1111122 
DISL,ioos:station:DISL:BSCA:1,2018-03-07T10:30:00Z,30.3288,-87.8293,1.903,1111122 
DISL,ioos:station:DISL:BSCA:1,2018-03-07T11:30:00Z,30.3288,-87.8293,1.896,1111122 
DISL,ioos:station:DISL:BSCA:1,2018-03-07T12:30:00Z,30.3288,-87.8293,1.824,1111122 
DISL,ioos:station:DISL:BSCA:1,2018-03-07T13:30:00Z,30.3288,-87.8293,1.841,1111122 
DISL,ioos:station:DISL:BSCA:1,2018-03-07T14:30:00Z,30.3288,-87.8293,1.853,1111122 
DISL,ioos:station:DISL:BSCA:1,2018-03-07T15:30:00Z,30.3288,-87.8293,1.868,1111122 
DISL,ioos:station:DISL:BSCA:1,2018-03-07T16:30:00Z,30.3288,-87.8293,1.925,1111122 
DISL,ioos:station:DISL:BSCA:1,2018-03-07T18:00:00Z,30.3288,-87.8293,1.963,1111122 
DISL,ioos:station:DISL:BSCA:1,2018-03-08T00:30:00Z,30.3288,-87.8293,1.95,1111122 
DISL,ioos:station:DISL:BSCA:1,2018-03-08T01:30:00Z,30.3288,-87.8293,1.929,1111122 
DISL,ioos:station:DISL:BSCA:1,2018-03-08T02:30:00Z,30.3288,-87.8293,1.883,1111122 
DISL,ioos:station:DISL:BSCA:1,2018-03-08T03:30:00Z,30.3288,-87.8293,1.814,1111122 
DISL,ioos:station:DISL:BSCA:1,2018-03-08T04:30:00Z,30.3288,-87.8293,1.751,1111122 
DISL,ioos:station:DISL:BSCA:1,2018-03-08T05:30:00Z,30.3288,-87.8293,1.707,1111122 
DISL,ioos:station:DISL:BSCA:1,2018-03-08T06:30:00Z,30.3288,-87.8293,1.714,1111122 
DISL,ioos:station:DISL:BSCA:1,2018-03-08T07:30:00Z,30.3288,-87.8293,1.742,1111122 
DISL,ioos:station:DISL:BSCA:1,2018-03-08T08:30:00Z,30.3288,-87.8293,1.653,1111122 
DISL,ioos:station:DISL:BSCA:1,2018-03-08T09:30:00Z,30.3288,-87.8293,1.549,1111122 
DISL,ioos:station:DISL:BSCA:1,2018-03-08T10:30:00Z,30.3288,-87.8293,1.549,1111122 
DISL,ioos:station:DISL:BSCA:1,2018-03-08T11:30:00Z,30.3288,-87.8293,1.632,1111122 
DISL,ioos:station:DISL:BSCA:1,2018-03-08T22:30:00Z,30.3288,-87.8293,2.04,1111122 
DISL,ioos:station:DISL:BSCA:1,2018-03-08T23:30:00Z,30.3288,-87.8293,1.998,1111122 
DISL,ioos:station:DISL:BSCA:1,2018-03-09T00:30:00Z,30.3288,-87.8293,1.962,1111122 
DISL,ioos:station:DISL:BSCA:1,2018-03-09T01:30:00Z,30.3288,-87.8293,1.923,1111122 
DISL,ioos:station:DISL:BSCA:1,2018-03-09T02:30:00Z,30.3288,-87.8293,1.875,1111122 
DISL,ioos:station:DISL:BSCA:1,2018-03-09T03:30:00Z,30.3288,-87.8293,1.813,1111122 
DISL,ioos:station:DISL:BSCA:1,2018-03-09T04:30:00Z,30.3288,-87.8293,1.759,1111122 
DISL,ioos:station:DISL:BSCA:1,2018-03-09T05:30:00Z,30.3288,-87.8293,1.723,1111122 
DISL,ioos:station:DISL:BSCA:1,2018-03-09T06:30:00Z,30.3288,-87.8293,1.687,1111122 
DISL,ioos:station:DISL:BSCA:1,2018-03-09T07:30:00Z,30.3288,-87.8293,1.64,1111122 
DISL,ioos:station:DISL:BSCA:1,2018-03-09T08:00:00Z,30.3288,-87.8293,1.617,1111122 
DISL,ioos:station:DISL:BSCA:1,2018-03-09T09:30:00Z,30.3288,-87.8293,1.586,1111122 
DISL,ioos:station:DISL:BSCA:1,2018-03-09T10:30:00Z,30.3288,-87.8293,1.618,1111122 
DISL,ioos:station:DISL:BSCA:1,2018-03-09T12:00:00Z,30.3288,-87.8293,1.686,1111122 
DISL,ioos:station:DISL:BSCA:1,2018-03-09T14:00:00Z,30.3288,-87.8293,1.738,1111122 
DISL,ioos:station:DISL:BSCA:1,2018-03-09T14:30:00Z,30.3288,-87.8293,1.764,1111122 
DISL,ioos:station:DISL:BSCA:1,2018-03-09T15:00:00Z,30.3288,-87.8293,1.791,1111122 
DISL,ioos:station:DISL:BSCA:1,2018-03-10T00:30:00Z,30.3288,-87.8293,2.135,1111122 
DISL,ioos:station:DISL:BSCA:1,2018-03-10T01:30:00Z,30.3288,-87.8293,2.11,1111122 
DISL,ioos:station:DISL:BSCA:1,2018-03-10T02:30:00Z,30.3288,-87.8293,2.045,1111122 
DISL,ioos:station:DISL:BSCA:1,2018-03-10T03:30:00Z,30.3288,-87.8293,1.991,1111122 
DISL,ioos:station:DISL:BSCA:1,2018-03-10T04:30:00Z,30.3288,-87.8293,1.935,1111122 
DISL,ioos:station:DISL:BSCA:1,2018-03-10T05:30:00Z,30.3288,-87.8293,1.877,1111122 
DISL,ioos:station:DISL:BSCA:1,2018-03-10T06:30:00Z,30.3288,-87.8293,1.856,1111122 
DISL,ioos:station:DISL:BSCA:1,2018-03-10T07:30:00Z,30.3288,-87.8293,1.844,1111122 
DISL,ioos:station:DISL:BSCA:1,2018-03-10T08:30:00Z,30.3288,-87.8293,1.809,1111122 
DISL,ioos:station:DISL:BSCA:1,2018-03-10T09:30:00Z,30.3288,-87.8293,1.809,1111122 
DISL,ioos:station:DISL:BSCA:1,2018-03-10T10:30:00Z,30.3288,-87.8293,1.801,1111122 
DISL,ioos:station:DISL:BSCA:1,2018-03-10T11:30:00Z,30.3288,-87.8293,1.816,1111122 
DISL,ioos:station:DISL:BSCA:1,2018-03-10T12:30:00Z,30.3288,-87.8293,1.821,1111122 
DISL,ioos:station:DISL:BSCA:1,2018-03-10T13:00:00Z,30.3288,-87.8293,1.84,1111122 
DISL,ioos:station:DISL:BSCA:1,2018-03-11T23:30:00Z,30.3288,-87.8293,2.188,1111122 
DISL,ioos:station:DISL:BSCA:1,2018-03-12T00:30:00Z,30.3288,-87.8293,2.345,1111122 
DISL,ioos:station:DISL:BSCA:1,2018-03-12T01:30:00Z,30.3288,-87.8293,2.379,1111122 
DISL,ioos:station:DISL:BSCA:1,2018-03-12T03:30:00Z,30.3288,-87.8293,2.287,1111122 
DISL,ioos:station:DISL:BSCA:1,2018-03-12T07:30:00Z,30.3288,-87.8293,2.106,1111122 
DISL,ioos:station:DISL:BSCA:1,2018-03-12T08:30:00Z,30.3288,-87.8293,2.032,1111122 
DISL,ioos:station:DISL:BSCA:1,2018-03-12T09:30:00Z,30.3288,-87.8293,1.958,1111122 
DISL,ioos:station:DISL:BSCA:1,2018-03-12T10:30:00Z,30.3288,-87.8293,1.91,1111122 
DISL,ioos:station:DISL:BSCA:1,2018-03-12T11:30:00Z,30.3288,-87.8293,1.879,1111122 
DISL,ioos:station:DISL:BSCA:1,2018-03-12T12:30:00Z,30.3288,-87.8293,1.752,1111122 
DISL,ioos:station:DISL:BSCA:1,2018-03-12T13:30:00Z,30.3288,-87.8293,1.767,1111122 
DISL,ioos:station:DISL:BSCA:1,2018-03-12T14:30:00Z,30.3288,-87.8293,1.835,1111122 
DISL,ioos:station:DISL:BSCA:1,2018-03-12T15:30:00Z,30.3288,-87.8293,1.781,1111122 
DISL,ioos:station:DISL:BSCA:1,2018-03-12T16:30:00Z,30.3288,-87.8293,1.731,1111122 
DISL,ioos:station:DISL:BSCA:1,2018-03-12T18:00:00Z,30.3288,-87.8293,1.762,1111122 
DISL,ioos:station:DISL:BSCA:1,2018-03-12T18:30:00Z,30.3288,-87.8293,1.809,1111122 
DISL,ioos:station:DISL:BSCA:1,2018-03-12T19:30:00Z,30.3288,-87.8293,1.852,1111122 
DISL,ioos:station:DISL:BSCA:1,2018-03-12T20:30:00Z,30.3288,-87.8293,1.897,1111122 
DISL,ioos:station:DISL:BSCA:1,2018-03-12T21:30:00Z,30.3288,-87.8293,1.948,1111122 
DISL,ioos:station:DISL:BSCA:1,2018-03-12T22:30:00Z,30.3288,-87.8293,2.02,1111122 
DISL,ioos:station:DISL:BSCA:1,2018-03-12T23:30:00Z,30.3288,-87.8293,2.072,1111122 
DISL,ioos:station:DISL:BSCA:1,2018-03-13T00:30:00Z,30.3288,-87.8293,2.072,1111122 
DISL,ioos:station:DISL:BSCA:1,2018-03-13T01:30:00Z,30.3288,-87.8293,2.045,1111122 
DISL,ioos:station:DISL:BSCA:1,2018-03-13T02:30:00Z,30.3288,-87.8293,2.008,1111122 
DISL,ioos:station:DISL:BSCA:1,2018-03-13T03:30:00Z,30.3288,-87.8293,1.967,1111122 
DISL,ioos:station:DISL:BSCA:1,2018-03-13T04:30:00Z,30.3288,-87.8293,1.927,1111122 
DISL,ioos:station:DISL:BSCA:1,2018-03-13T05:30:00Z,30.3288,-87.8293,1.877,1111122 
DISL,ioos:station:DISL:BSCA:1,2018-03-13T06:30:00Z,30.3288,-87.8293,1.809,1111122 
DISL,ioos:station:DISL:BSCA:1,2018-03-13T07:30:00Z,30.3288,-87.8293,1.784,1111122 
DISL,ioos:station:DISL:BSCA:1,2018-03-13T08:30:00Z,30.3288,-87.8293,1.77,1111122 
DISL,ioos:station:DISL:BSCA:1,2018-03-13T09:30:00Z,30.3288,-87.8293,1.698,1111122 
DISL,ioos:station:DISL:BSCA:1,2018-03-13T10:30:00Z,30.3288,-87.8293,1.602,1111122 
DISL,ioos:station:DISL:BSCA:1,2018-03-13T12:00:00Z,30.3288,-87.8293,1.527,1111122 
DISL,ioos:station:DISL:BSCA:1,2018-03-13T13:00:00Z,30.3288,-87.8293,1.536,1111122 
DISL,ioos:station:DISL:BSCA:1,2018-03-14T03:30:00Z,30.3288,-87.8293,2.048,1111122 
DISL,ioos:station:DISL:BSCA:1,2018-03-14T04:30:00Z,30.3288,-87.8293,1.996,1111122 
DISL,ioos:station:DISL:BSCA:1,2018-03-14T05:30:00Z,30.3288,-87.8293,1.926,1111122 
DISL,ioos:station:DISL:BSCA:1,2018-03-14T06:30:00Z,30.3288,-87.8293,1.885,1111122 
DISL,ioos:station:DISL:BSCA:1,2018-03-14T08:00:00Z,30.3288,-87.8293,1.824,1111122 
DISL,ioos:station:DISL:BSCA:1,2018-03-14T09:00:00Z,30.3288,-87.8293,1.73,1111122 
DISL,ioos:station:DISL:BSCA:1,2018-03-14T09:30:00Z,30.3288,-87.8293,1.676,1111122 
DISL,ioos:station:DISL:BSCA:1,2018-03-14T11:00:00Z,30.3288,-87.8293,1.582,1111122 
DISL,ioos:station:DISL:BSCA:1,2018-03-14T12:00:00Z,30.3288,-87.8293,1.59,1111122 
DISL,ioos:station:DISL:BSCA:1,2018-03-14T12:30:00Z,30.3288,-87.8293,1.601,1111122 
DISL,ioos:station:DISL:BSCA:1,2018-03-14T18:00:00Z,30.3288,-87.8293,1.81,1111122 
DISL,ioos:station:DISL:BSCA:1,2018-03-15T00:00:00Z,30.3288,-87.8293,2.049,1111122 
DISL,ioos:station:DISL:BSCA:1,2018-03-15T01:00:00Z,30.3288,-87.8293,2.081,1111122 
DISL,ioos:station:DISL:BSCA:1,2018-03-15T02:00:00Z,30.3288,-87.8293,2.097,1111122 
DISL,ioos:station:DISL:BSCA:1,2018-03-15T02:30:00Z,30.3288,-87.8293,2.092,1111122 
DISL,ioos:station:DISL:BSCA:1,2018-03-15T04:00:00Z,30.3288,-87.8293,2.019,1111122 
DISL,ioos:station:DISL:BSCA:1,2018-03-15T04:30:00Z,30.3288,-87.8293,1.992,1111122 
DISL,ioos:station:DISL:BSCA:1,2018-03-15T05:30:00Z,30.3288,-87.8293,1.936,1111122 
DISL,ioos:station:DISL:BSCA:1,2018-03-15T06:30:00Z,30.3288,-87.8293,1.898,1111122 
DISL,ioos:station:DISL:BSCA:1,2018-03-15T07:30:00Z,30.3288,-87.8293,1.847,1111122 
DISL,ioos:station:DISL:BSCA:1,2018-03-15T08:00:00Z,30.3288,-87.8293,1.821,1111122 
DISL,ioos:station:DISL:BSCA:1,2018-03-15T12:00:00Z,30.3288,-87.8293,1.666,1111122 
DISL,ioos:station:DISL:BSCA:1,2018-03-15T13:00:00Z,30.3288,-87.8293,1.66,1111122 
DISL,ioos:station:DISL:BSCA:1,2018-03-15T14:00:00Z,30.3288,-87.8293,1.673,1111122 
DISL,ioos:station:DISL:BSCA:1,2018-03-15T15:00:00Z,30.3288,-87.8293,1.692,1111122 
DISL,ioos:station:DISL:BSCA:1,2018-03-15T16:00:00Z,30.3288,-87.8293,1.735,1111122 
DISL,ioos:station:DISL:BSCA:1,2018-03-16T00:00:00Z,30.3288,-87.8293,1.989,1111122 
DISL,ioos:station:DISL:BSCA:1,2018-03-16T01:00:00Z,30.3288,-87.8293,2.012,1111122 
DISL,ioos:station:DISL:BSCA:1,2018-03-16T01:30:00Z,30.3288,-87.8293,2.042,1111122 
DISL,ioos:station:DISL:BSCA:1,2018-03-16T03:00:00Z,30.3288,-87.8293,2.058,1111122 
DISL,ioos:station:DISL:BSCA:1,2018-03-16T04:00:00Z,30.3288,-87.8293,2.058,1111122 
DISL,ioos:station:DISL:BSCA:1,2018-03-16T05:00:00Z,30.3288,-87.8293,2.047,1111122 
DISL,ioos:station:DISL:BSCA:1,2018-03-16T06:00:00Z,30.3288,-87.8293,2.028,1111122 
DISL,ioos:station:DISL:BSCA:1,2018-03-16T06:30:00Z,30.3288,-87.8293,2.011,1111122 
DISL,ioos:station:DISL:BSCA:1,2018-03-16T07:30:00Z,30.3288,-87.8293,1.961,1111122 
DISL,ioos:station:DISL:BSCA:1,2018-03-16T09:00:00Z,30.3288,-87.8293,1.884,1111122 
DISL,ioos:station:DISL:BSCA:1,2018-03-16T10:00:00Z,30.3288,-87.8293,1.816,1111122 
DISL,ioos:station:DISL:BSCA:1,2018-03-16T11:00:00Z,30.3288,-87.8293,1.786,1111122 
DISL,ioos:station:DISL:BSCA:1,2018-03-16T12:00:00Z,30.3288,-87.8293,1.761,1111122 
DISL,ioos:station:DISL:BSCA:1,2018-03-16T13:00:00Z,30.3288,-87.8293,1.766,1111122 
DISL,ioos:station:DISL:BSCA:1,2018-03-16T14:00:00Z,30.3288,-87.8293,1.776,1111122 
DISL,ioos:station:DISL:BSCA:1,2018-03-16T15:00:00Z,30.3288,-87.8293,1.791,1111122 
DISL,ioos:station:DISL:BSCA:1,2018-03-16T16:00:00Z,30.3288,-87.8293,1.834,1111122 
DISL,ioos:station:DISL:BSCA:1,2018-03-16T17:00:00Z,30.3288,-87.8293,1.886,1111122 
DISL,ioos:station:DISL:BSCA:1,2018-03-16T18:00:00Z,30.3288,-87.8293,1.944,1111122 
DISL,ioos:station:DISL:BSCA:1,2018-03-16T19:00:00Z,30.3288,-87.8293,1.947,1111122 
DISL,ioos:station:DISL:BSCA:1,2018-03-16T19:30:00Z,30.3288,-87.8293,1.944,1111122 
DISL,ioos:station:DISL:BSCA:1,2018-03-20T11:00:00Z,30.3288,-87.8293,2.166,1111122 
DISL,ioos:station:DISL:BSCA:1,2018-03-20T11:30:00Z,30.3288,-87.8293,2.139,1111122 
DISL,ioos:station:DISL:BSCA:1,2018-03-20T12:30:00Z,30.3288,-87.8293,2.12,1111122 
DISL,ioos:station:DISL:BSCA:1,2018-03-20T18:00:00Z,30.3288,-87.8293,2.194,1111122 
DISL,ioos:station:DISL:BSCA:1,2018-03-20T19:00:00Z,30.3288,-87.8293,2.238,1111122 
DISL,ioos:station:DISL:BSCA:1,2018-03-20T20:00:00Z,30.3288,-87.8293,2.232,1111122 
DISL,ioos:station:DISL:BSCA:1,2018-03-20T21:00:00Z,30.3288,-87.8293,2.155,1111122 
DISL,ioos:station:DISL:BSCA:1,2018-03-20T22:00:00Z,30.3288,-87.8293,2.119,1111122 
DISL,ioos:station:DISL:BSCA:1,2018-03-20T22:30:00Z,30.3288,-87.8293,2.085,1111122 
DISL,ioos:station:DISL:BSCA:1,2018-03-20T23:30:00Z,30.3288,-87.8293,2.04,1111122 
DISL,ioos:station:DISL:BSCA:1,2018-03-21T00:30:00Z,30.3288,-87.8293,2.019,1111122 
DISL,ioos:station:DISL:BSCA:1,2018-03-21T01:30:00Z,30.3288,-87.8293,1.97,1111122 
DISL,ioos:station:DISL:BSCA:1,2018-03-21T02:30:00Z,30.3288,-87.8293,1.845,1111122 
DISL,ioos:station:DISL:BSCA:1,2018-03-21T03:30:00Z,30.3288,-87.8293,1.785,1111122 
DISL,ioos:station:DISL:BSCA:1,2018-03-21T04:30:00Z,30.3288,-87.8293,1.758,1111122 
DISL,ioos:station:DISL:BSCA:1,2018-03-21T05:30:00Z,30.3288,-87.8293,1.761,1111122 
DISL,ioos:station:DISL:BSCA:1,2018-03-21T06:30:00Z,30.3288,-87.8293,1.777,1111122 
DISL,ioos:station:DISL:BSCA:1,2018-03-21T07:30:00Z,30.3288,-87.8293,1.802,1111122 
DISL,ioos:station:DISL:BSCA:1,2018-03-21T08:30:00Z,30.3288,-87.8293,1.815,1111122 
DISL,ioos:station:DISL:BSCA:1,2018-03-21T09:30:00Z,30.3288,-87.8293,1.892,1111122 
DISL,ioos:station:DISL:BSCA:1,2018-03-21T10:30:00Z,30.3288,-87.8293,1.924,1111122 
DISL,ioos:station:DISL:BSCA:1,2018-03-21T11:30:00Z,30.3288,-87.8293,1.965,1111122 
DISL,ioos:station:DISL:BSCA:1,2018-03-21T12:30:00Z,30.3288,-87.8293,2.0,1111122 
DISL,ioos:station:DISL:BSCA:1,2018-03-21T14:00:00Z,30.3288,-87.8293,1.984,1111122 
DISL,ioos:station:DISL:BSCA:1,2018-03-21T15:00:00Z,30.3288,-87.8293,2.017,1111122 
DISL,ioos:station:DISL:BSCA:1,2018-03-21T15:30:00Z,30.3288,-87.8293,2.012,1111122 
DISL,ioos:station:DISL:BSCA:1,2018-03-21T17:00:00Z,30.3288,-87.8293,2.024,1111122 
DISL,ioos:station:DISL:BSCA:1,2018-03-21T18:30:00Z,30.3288,-87.8293,2.013,1111122 
DISL,ioos:station:DISL:BSCA:1,2018-03-21T19:30:00Z,30.3288,-87.8293,2.018,1111122 
DISL,ioos:station:DISL:BSCA:1,2018-03-21T21:00:00Z,30.3288,-87.8293,1.994,1111122 
DISL,ioos:station:DISL:BSCA:1,2018-03-21T22:00:00Z,30.3288,-87.8293,1.973,1111122 
DISL,ioos:station:DISL:BSCA:1,2018-03-21T23:00:00Z,30.3288,-87.8293,1.919,1111122 
DISL,ioos:station:DISL:BSCA:1,2018-03-21T23:30:00Z,30.3288,-87.8293,1.873,1111122 
DISL,ioos:station:DISL:BSCA:1,2018-03-22T00:30:00Z,30.3288,-87.8293,1.834,1111122 
DISL,ioos:station:DISL:BSCA:1,2018-03-22T01:30:00Z,30.3288,-87.8293,1.77,1111122 
DISL,ioos:station:DISL:BSCA:1,2018-03-22T02:30:00Z,30.3288,-87.8293,1.695,1111122 
DISL,ioos:station:DISL:BSCA:1,2018-03-22T03:30:00Z,30.3288,-87.8293,1.653,1111122 
DISL,ioos:station:DISL:BSCA:1,2018-03-22T04:30:00Z,30.3288,-87.8293,1.624,1111122 
DISL,ioos:station:DISL:BSCA:1,2018-03-22T05:30:00Z,30.3288,-87.8293,1.59,1111122 
DISL,ioos:station:DISL:BSCA:1,2018-03-22T06:30:00Z,30.3288,-87.8293,1.539,1111122 
DISL,ioos:station:DISL:BSCA:1,2018-03-22T07:30:00Z,30.3288,-87.8293,1.505,1111122 
DISL,ioos:station:DISL:BSCA:1,2018-03-22T08:30:00Z,30.3288,-87.8293,1.513,1111122 
DISL,ioos:station:DISL:BSCA:1,2018-03-22T09:30:00Z,30.3288,-87.8293,1.544,1111122 
DISL,ioos:station:DISL:BSCA:1,2018-03-22T10:30:00Z,30.3288,-87.8293,1.587,1111122 
DISL,ioos:station:DISL:BSCA:1,2018-03-22T11:30:00Z,30.3288,-87.8293,1.639,1111122 
DISL,ioos:station:DISL:BSCA:1,2018-03-22T12:30:00Z,30.3288,-87.8293,1.67,1111122 
DISL,ioos:station:DISL:BSCA:1,2018-03-22T13:30:00Z,30.3288,-87.8293,1.706,1111122 
DISL,ioos:station:DISL:BSCA:1,2018-03-22T17:00:00Z,30.3288,-87.8293,1.945,1111122 
DISL,ioos:station:DISL:BSCA:1,2018-03-22T17:30:00Z,30.3288,-87.8293,1.976,1111122 
DISL,ioos:station:DISL:BSCA:1,2018-03-22T19:00:00Z,30.3288,-87.8293,2.03,1111122 
DISL,ioos:station:DISL:BSCA:1,2018-03-22T19:30:00Z,30.3288,-87.8293,2.036,1111122 
DISL,ioos:station:DISL:BSCA:1,2018-03-22T20:30:00Z,30.3288,-87.8293,2.0,1111122 
DISL,ioos:station:DISL:BSCA:1,2018-03-22T22:00:00Z,30.3288,-87.8293,1.958,1111122 
DISL,ioos:station:DISL:BSCA:1,2018-03-22T22:30:00Z,30.3288,-87.8293,1.945,1111122 
DISL,ioos:station:DISL:BSCA:1,2018-03-22T23:30:00Z,30.3288,-87.8293,1.928,1111122 
DISL,ioos:station:DISL:BSCA:1,2018-03-23T00:30:00Z,30.3288,-87.8293,1.868,1111122 
DISL,ioos:station:DISL:BSCA:1,2018-03-23T01:30:00Z,30.3288,-87.8293,1.782,1111122 
DISL,ioos:station:DISL:BSCA:1,2018-03-23T02:30:00Z,30.3288,-87.8293,1.728,1111122 
DISL,ioos:station:DISL:BSCA:1,2018-03-23T03:30:00Z,30.3288,-87.8293,1.684,1111122 
DISL,ioos:station:DISL:BSCA:1,2018-03-23T04:30:00Z,30.3288,-87.8293,1.622,1111122 
DISL,ioos:station:DISL:BSCA:1,2018-03-23T05:30:00Z,30.3288,-87.8293,1.581,1111122 
DISL,ioos:station:DISL:BSCA:1,2018-03-23T06:30:00Z,30.3288,-87.8293,1.561,1111122 
DISL,ioos:station:DISL:BSCA:1,2018-03-23T07:30:00Z,30.3288,-87.8293,1.538,1111122 
DISL,ioos:station:DISL:BSCA:1,2018-03-23T08:30:00Z,30.3288,-87.8293,1.553,1111122 
DISL,ioos:station:DISL:BSCA:1,2018-03-23T09:30:00Z,30.3288,-87.8293,1.584,1111122 
DISL,ioos:station:DISL:BSCA:1,2018-03-23T10:30:00Z,30.3288,-87.8293,1.614,1111122 
DISL,ioos:station:DISL:BSCA:1,2018-03-23T11:30:00Z,30.3288,-87.8293,1.674,1111122 
DISL,ioos:station:DISL:BSCA:1,2018-03-23T12:30:00Z,30.3288,-87.8293,1.737,1111122 
DISL,ioos:station:DISL:BSCA:1,2018-03-23T13:30:00Z,30.3288,-87.8293,1.778,1111122 
DISL,ioos:station:DISL:BSCA:1,2018-03-23T15:00:00Z,30.3288,-87.8293,1.86,1111122 
DISL,ioos:station:DISL:BSCA:1,2018-03-23T15:30:00Z,30.3288,-87.8293,1.899,1111122 
DISL,ioos:station:DISL:BSCA:1,2018-03-23T16:30:00Z,30.3288,-87.8293,1.966,1111122 
DISL,ioos:station:DISL:BSCA:1,2018-03-23T17:30:00Z,30.3288,-87.8293,2.054,1111122 
DISL,ioos:station:DISL:BSCA:1,2018-03-23T18:30:00Z,30.3288,-87.8293,2.091,1111122 
DISL,ioos:station:DISL:BSCA:1,2018-03-23T19:30:00Z,30.3288,-87.8293,2.097,1111122 
DISL,ioos:station:DISL:BSCA:1,2018-03-23T20:30:00Z,30.3288,-87.8293,2.106,1111122 